sat.trackr.live / text

‹ back to catalog

STARLINK-4335

NORAD 53215 · 2022-084AC

PAYLOAD ACTIVE UNKNOWN

§ Identity

Operator
Country
US
Launch date
2022-07-22
Launch site
AFWTR
Launch vehicle
Mass (kg)
RCS (m²)

Purposes: comms

External: N2YO · Heavens-Above · Gunter

§ Orbital elements

Epoch: 2026-05-25T02:52:55.999776Z

Period
95.64 min
Inclination
97.4503°
Eccentricity
0.0001728
Mean motion
15.05655725 rev/d
Perigee alt
548.3 km
Apogee alt
550.7 km
Semi-major
6,927.6 km
B*
-2.1514e-5
RAAN
206.1956°
Arg perigee
131.8178°
Mean anomaly
228.3197°
Rev number
21,140

§ Raw data

STARLINK-43351 53215U 22084AC  26145.12009259 -.00000369  00000+0 -21514-4 0  99942 53215  97.4503 206.1956 0001728 131.8178 228.3197 15.05655725211403

JSON: /api/v1/satellites/53215 · /tle

For live sub-satellite position, see the globe view (requires WebGL).

§ Visibility from observer

Set your observer location to see the next 7 days of passes ≥ 10°. The values pass through the URL so the page stays shareable.

No JS? Fill the form by hand. The geolocation button needs JavaScript.